Weather History for KMCE - October, 2012

Change the Weather History Date:

Thursday, October 11, 2012

  Actual Average Record
Temperature  
Mean Temperature 62 °F 65 °F  
Max Temperature 68 °F 81 °F 92 °F (1999)
Min Temperature 55 °F 50 °F 41 °F (1998)
Degree Days  
Heating Degree Days 3    
Month to date heating degree days 3  
Since 1 July heating degree days 3  
Cooling Degree Days 0    
Month to date cooling degree days 69  
Year to date cooling degree days 1922  
Growing Degree Days 12 (Base 50)    
Moisture  
Dew Point 50 °F    
Average Humidity 66    
Maximum Humidity 83    
Minimum Humidity 49    
Precipitation  
Precipitation T in 0.01 in 0.06 in (2000)
Month to date precipitation T 0.12  
Year to date precipitation 5.55 9.11  
Since 1 July precipitation 0.04 0.43  
Snow  
Snow 0.00 in - - ()
Month to date snowfall 0.0  
Since 1 July snowfall 0.0  
Since 1 September snowfall 0.0  
Snow Depth 0.00 in    
Sea Level Pressure  
Sea Level Pressure 29.90 in    
Wind  
Wind Speed 6 mph (WNW)    
Max Wind Speed 14 mph    
Max Gust Speed 16 mph    
Visibility 9 miles    
Events      
T = Trace of Precipitation, MM = Missing Value Source: NWS Daily Summary

Daily Weather History Graph

Daily Weather History Graph

Search for Another Location

Airport or City:

Trip Planner

Search our weather history database for the weather conditions in past years. The results will help you decide how hot, cold, wet, or windy it might be!

Date:

Astronomy

Oct. 11, 2012 Rise Set
Actual Time 7:06 AM PDT 6:29 PM PDT
Civil Twilight 6:40 AM PDT 6:55 PM PDT
Nautical Twilight 6:10 AM PDT 7:26 PM PDT
Astronomical Twilight 5:40 AM PDT 7:56 PM PDT
Moon 2:55 AM PDT (10/11) 4:04 PM PDT (10/11)
Length of Visible Light 12h 15m
Length of Day
11h 22m
Waning Crescent, 17% of the Moon is Illuminated
Oct 11
Waning Crescent
Oct 15
New
Oct 21
First Quarter
Oct 29
Full
Nov 6
Last Quarter

Hourly Weather History & Observations

Time (PDT) Temp. Dew Point Humidity Pressure Visibility Wind Dir Wind Speed Gust Speed Precip Events Conditions
12:53 AM 57.9 °F 50.0 °F 75% 29.88 in 10.0 mi West 3.5 mph - N/A   Clear
1:53 AM 57.9 °F 50.0 °F 75% 29.86 in 10.0 mi WNW 4.6 mph - N/A   Clear
2:53 AM 57.0 °F 50.0 °F 77% 29.88 in 10.0 mi Calm Calm - N/A   Clear
4:53 AM 55.9 °F 48.9 °F 77% 29.85 in 10.0 mi West 6.9 mph - N/A   Clear
5:53 AM 55.0 °F 50.0 °F 83% 29.85 in 8.0 mi NNW 9.2 mph - N/A   Clear
6:53 AM 57.0 °F 48.9 °F 74% 29.84 in 9.0 mi NNW 10.4 mph - N/A   Clear
7:53 AM 55.9 °F 50.0 °F 80% 29.85 in 6.0 mi NNW 8.1 mph - N/A   Haze
8:53 AM 59.0 °F 50.0 °F 72% 29.87 in 7.0 mi North 6.9 mph - N/A   Clear
9:53 AM 60.1 °F 50.0 °F 69% 29.88 in 8.0 mi Calm Calm - N/A   Clear
10:53 AM 60.1 °F 51.1 °F 72% 29.90 in 6.0 mi SSE 4.6 mph - N/A   Haze
11:53 AM 61.0 °F 50.0 °F 67% 29.89 in 6.0 mi WSW 5.8 mph - N/A   Haze
12:53 PM 63.0 °F 50.0 °F 63% 29.90 in 7.0 mi West 5.8 mph - N/A   Overcast
1:53 PM 63.0 °F 52.0 °F 67% 29.88 in 7.0 mi WSW 4.6 mph - 0.00 in   Scattered Clouds
4:53 PM 68.0 °F 48.9 °F 50% 29.87 in 10.0 mi SW 9.2 mph - N/A   Clear
6:53 PM 61.0 °F 50.0 °F 67% 29.88 in 10.0 mi WNW 6.9 mph - N/A   Clear
7:53 PM 60.1 °F 50.0 °F 69% 29.93 in 10.0 mi WNW 5.8 mph - N/A   Clear
8:53 PM 57.9 °F 48.9 °F 72% 29.93 in 10.0 mi WNW 5.8 mph - N/A   Clear
9:53 PM 57.9 °F 50.0 °F 75% 29.95 in 10.0 mi NW 6.9 mph - N/A   Clear
10:40 PM 59.0 °F 50.0 °F 72% 29.95 in 10.0 mi NW 6.9 mph - N/A   Mostly Cloudy
10:53 PM 57.9 °F 50.0 °F 75% 29.96 in 9.0 mi WNW 3.5 mph - N/A   Overcast
11:12 PM 57.2 °F 51.8 °F 82% 29.96 in 9.0 mi NW 6.9 mph - N/A   Mostly Cloudy
11:53 PM 59.0 °F 50.0 °F 72% 29.95 in 10.0 mi NNW 6.9 mph - N/A   Overcast